EDT,Max TemperatureF,Mean TemperatureF,Min TemperatureF,Max Dew PointF,MeanDew PointF,Min DewpointF,Max Humidity, Mean Humidity, Min Humidity, Max Sea Level PressureIn, Mean Sea Level PressureIn, Min Sea Level PressureIn, Max VisibilityMiles, Mean VisibilityMiles, Min VisibilityMiles, Max Wind SpeedMPH, Mean Wind SpeedMPH, Max Gust SpeedMPH,PrecipitationIn, CloudCover, Events, WindDirDegrees
2012-9-1,79,71,61,64,59,53,87,64,45,30.14,30.03,29.87,10,10,10,10,5,,0.00,2,,87
2012-9-2,74,66,59,59,56,52,93,73,48,30.19,30.13,30.08,10,10,6,12,2,,0.00,4,,58
2012-9-3,77,68,59,59,57,54,97,75,43,30.26,30.20,30.15,10,8,2,8,4,,0.00,4,,39
2012-9-4,68,64,61,67,64,54,100,92,68,30.15,30.03,29.88,10,4,0,7,2,,0.15,7,Fog-Rain,92
2012-9-5,79,74,68,72,69,64,100,85,58,29.86,29.77,29.70,10,7,1,12,4,,0.25,5,Rain-Thunderstorm,95
2012-9-6,79,72,64,67,64,62,93,77,58,29.93,29.88,29.85,10,10,10,7,2,,0.00,2,,290
2012-9-7,86,74,63,67,63,56,96,73,36,29.95,29.91,29.87,10,10,9,6,1,,0.00,1,,225
2012-9-8,82,72,63,72,67,60,94,79,52,29.89,29.76,29.61,10,9,2,16,5,26,0.30,6,Rain-Thunderstorm,162
2012-9-9,74,66,56,60,55,50,93,72,42,29.87,29.82,29.73,10,10,10,9,4,,0.00,1,Rain,315
2012-9-10,65,60,54,52,46,41,90,61,43,30.07,29.96,29.88,10,10,10,16,8,28,0.00,3,,323
2012-9-11,73,60,47,50,43,39,89,57,29,30.28,30.20,30.08,10,10,8,12,6,,0.00,0,,322
2012-9-12,77,61,45,56,48,42,93,71,33,30.36,30.33,30.29,10,10,10,6,2,,0.00,0,,315
2012-9-13,83,66,50,58,55,48,93,69,36,30.37,30.31,30.26,10,10,7,7,1,17,0.00,0,Rain,289
2012-9-14,82,68,54,61,58,53,93,74,44,30.27,30.18,30.07,10,10,10,8,2,,0.00,0,,219
2012-9-15,72,62,50,61,50,42,93,64,35,30.07,30.04,30.00,10,10,8,20,7,26,0.02,2,Rain,311
2012-9-16,70,56,43,46,41,33,90,62,25,30.11,30.06,30.00,10,10,10,14,5,21,0.00,0,,306
2012-9-17,77,58,39,55,46,38,93,67,35,30.12,30.07,30.03,10,10,10,5,2,,0.00,0,,315
2012-9-18,72,62,52,70,62,52,97,84,71,30.06,29.86,29.66,10,7,1,15,5,25,0.47,5,Rain,144
2012-9-19,70,60,47,68,53,36,94,70,30,30.23,29.90,29.68,10,8,1,17,7,,0.26,4,Rain,306
2012-9-20,64,52,41,44,41,39,90,66,43,30.30,30.24,30.18,10,10,10,9,6,,0.00,1,,342
2012-9-21,65,54,43,51,46,40,93,78,54,30.20,30.15,30.08,10,10,10,10,4,,0.00,1,,3
2012-9-22,73,62,51,61,54,48,94,81,59,30.06,29.95,29.82,10,10,5,8,4,,0.00,6,,326
2012-9-23,68,58,46,63,49,38,94,69,33,30.11,29.94,29.81,10,9,2,16,7,23,0.10,3,Rain,298
2012-9-24,64,51,38,42,39,34,93,67,32,30.15,30.11,30.06,10,10,10,12,3,20,0.00,1,,284
2012-9-25,72,56,39,51,42,37,89,64,31,30.17,30.14,30.11,10,10,10,12,2,21,0.00,0,,192
2012-9-26,72,64,57,60,57,52,93,78,64,30.13,30.06,30.00,10,10,9,8,3,,0.00,6,Rain,150
2012-9-27,66,56,45,60,47,37,96,68,34,30.28,30.15,30.00,10,10,3,15,5,,0.01,1,,330
2012-9-28,54,50,45,52,48,42,97,92,83,30.28,30.17,30.03,10,4,1,6,4,,1.22,6,Rain,3
2012-9-29,56,53,50,52,51,48,100,91,80,30.02,29.96,29.91,10,5,1,8,5,,0.06,6,Rain,2
2012-9-30,61,56,50,54,52,48,94,91,75,29.93,29.83,29.71,10,7,2,7,2,,0.04,6,Rain,357